Regional Weather Roundup
Issued by NWS

Home | Current Version | Previous Version | Graphics & Text | Print | Product List | Glossary Off
Versions: 1 2 3 4 5 6 7 8 9 10 11 12 13 14 15 16 17 18 19 20 21 22 23 24 25 26 27 28 29 30 31 32 33 34 35 36 37 38 39 40 41 42 43 44 45 46 47 48 49 50

000
ASUS43 KDMX 172207
RWRIA

WEATHER ROUNDUP FOR IOWA
NATIONAL WEATHER SERVICE DES MOINES IA
400 PM CST WED DEC 17 2014

NOTE: "FAIR" INDICATES FEW OR NO CLOUDS BELOW 12,000 FEET WITH NO
SIGNIFICANT WEATHER AND/OR OBSTRUCTIONS TO VISIBILITY.

* - THESE STATIONS ARE NOT NWS STATIONS...THUS NOT UNDER NWS
QUALITY CONTROL.  THEY ALSO DO NOT REPORT WEATHER SUCH
AS PRECIPITATION OR FOG.

IAZ001>003-012>014-020>022-031>034-043>046-172300-
   NORTHWEST IOWA

CITY           SKY/WX    TMP DP  RH WIND       PRES   REMARKS
CARROLL *      CLEAR     25  18  74 CALM      30.27S
CHEROKEE *     CLEAR     27  18  69 CALM      30.26S
DENISON *      CLEAR     27  18  69 CALM      30.25S
LE MARS *      CLEAR     23  16  74 CALM      30.28R
ORANGE CITY *  CLEAR     25  16  68 CALM      30.25S
SHELDON *      CLEAR     21  18  86 N6        30.24F WCI  14
SIOUX CITY     CLEAR     26  15  63 E5        30.28S WCI  20
SPENCER        CLEAR     25  15  66 N6        30.26S WCI  18
STORM LAKE *   CLEAR     23  16  74 CALM      30.26R
$$

IAZ055>058-069>071-079>083-090>094-172300-
   SOUTHWEST IOWA

CITY           SKY/WX    TMP DP  RH WIND       PRES   REMARKS
ATLANTIC *     CLEAR     27  18  69 SW5       30.27R WCI  21
AUDUBON *      CLEAR     28  16  59 CALM      30.27S
CLARINDA *     CLOUDY    28  19  69 NE6       30.28S WCI  22
COUNCIL BLFS * CLOUDY    27  18  69 E3        30.24S
CRESTON *      PTCLDY    27  18  69 CALM      30.26S
HARLAN  *      CLEAR     28  19  69 CALM      30.29S
LAMONI         PTCLDY    27  17  66 CALM      30.26S
RED OAK *      CLOUDY    28  18  64 NE3       30.27S
SHENANDOAH *   CLOUDY    28  19  69 NE5       30.27F WCI  23
$$

IAZ047>049-059>061-072>074-084-172300-
   CENTRAL IOWA

CITY           SKY/WX    TMP DP  RH WIND       PRES   REMARKS
AMES           CLEAR     25  15  66 N5        30.28S WCI  19
ANKENY *       CLEAR     27  16  63 NW6       30.29S WCI  20
CHARITON *     CLEAR     28  16  59 CALM      30.28R
DES MOINES     MOCLDY    28  13  53 CALM      30.29R
GRINNELL*      CLEAR     25  18  74 NW6       30.28S WCI  18
KNOXVILLE *    CLEAR     27  14  59 CALM      30.28S
MARSHALLTOWN   CLEAR     25  15  66 NW6       30.27R WCI  18
PELLA *        PTCLDY    28  18  64 CALM      30.30S
PERRY *          N/A     27  19  74 N3        30.28S
$$

IAZ004>006-015-016-023>025-035-036-172300-
   NORTH CENTRAL IOWA

CITY           SKY/WX    TMP DP  RH WIND       PRES   REMARKS
ALGONA *       CLEAR     23  18  80 N5        30.27F WCI  17
CLARION *      MOCLDY    23  19  86 N7        30.27S WCI  15
ESTHERVILLE    CLEAR     21  14  74 NW7       30.26S WCI  12
FORT DODGE *   CLEAR     23  14  68 CALM      30.28S
MASON CITY     PTCLDY    21  14  74 NW9       30.28R WCI  11
FOREST CITY *  CLEAR     21  14  73 N6        30.26S WCI  14
IOWA FALLS *     N/A     25  18  74 N7        30.27S WCI  17
$$

IAZ007>011-017>019-026>030-037>042-050>054-066-172300-
   NORTHEAST IOWA

CITY           SKY/WX    TMP DP  RH WIND       PRES   REMARKS
CEDAR RAPIDS   CLEAR     25  15  66 NW7       30.27R WCI  17
CHARLES CITY * PTCLDY    23  18  80 NW8       30.27R WCI  14
CLINTON *      CLEAR     25  14  63 NW8       30.30R WCI  16
DECORAH *      PTCLDY    21  14  73 N8        30.24R WCI  12
DUBUQUE        CLEAR     22  14  71 NW7       30.25R WCI  13
MONTICELLO *   CLEAR     25  16  68 NW7       30.27R WCI  17
OELWEIN *      CLEAR     23  16  74 W9        30.27R WCI  13
WATERLOO       CLEAR     23  14  68 NW8       30.28R WCI  14
$$

IAZ064-065-067-068-078-172300-
   EAST CENTRAL IOWA

CITY           SKY/WX    TMP DP  RH WIND       PRES   REMARKS
DAVENPORT      CLEAR     26  15  63 NW10      30.27R WCI  16
IOWA CITY      CLEAR     26  15  63 NW8       30.30R WCI  18
MT. PLEASANT * CLEAR     28  18  64 W6        30.28S WCI  22
MUSCATINE *    CLEAR     28  16  59 W8        30.30S WCI  20
QUAD CITIES    CLEAR     28  15  58 NW12      30.28R WCI  18
$$

IAZ062-063-075>077-085>089-095>099-172300-
   SOUTHEAST IOWA

CITY           SKY/WX    TMP DP  RH WIND       PRES   REMARKS
BURLINGTON     FLURRIES  30  20  66 NW7       30.28R WCI  23
FAIRFIELD *    CLEAR     28  18  64 NW6       30.29S WCI  22
FORT MADISON * CLEAR     30  21  69 W5        30.29S WCI  25
KEOKUK *       CLEAR     30  19  64 N6        30.29R WCI  24
OSKALOOSA *      N/A     27  19  74 NW6       30.29S WCI  20
CENTERVILLE *  CLEAR     28  18  64 N5        30.29S WCI  23
OTTUMWA        CLEAR     27  16  63 NW7       30.28S WCI  19
WASHINGTON *   CLEAR     28  19  69 NW9       30.28F WCI  20
$$

ABBREVIATIONS USED IN REMARKS
   TC - TEMPERATURES IN CELSIUS
  WCI - WIND CHILL INDEX
   HX - HEAT INDEX
  VSB - VISIBILITY
$$




USA.gov is the U.S. government's official web portal to all federal, state and local government web resources and services.